000000,21.7129, 28 Oct 2015, 00:00:34
000030,21.6949, 28 Oct 2015, 00:01:04
000100,21.6778, 28 Oct 2015, 00:01:34
000130,21.6713, 28 Oct 2015, 00:02:04
000230,21.6605, 28 Oct 2015, 00:03:04
000300,21.6608, 28 Oct 2015, 00:03:35
000330,21.6667, 28 Oct 2015, 00:04:05
000400,21.6738, 28 Oct 2015, 00:04:34
000430,21.6837, 28 Oct 2015, 00:05:05
000500,21.6948, 28 Oct 2015, 00:05:35
000530,21.707, 28 Oct 2015, 00:06:05
000600,21.7206, 28 Oct 2015, 00:06:34
000630,21.7381, 28 Oct 2015, 00:07:05
000700,21.7569, 28 Oct 2015, 00:07:35
000730,21.7744, 28 Oct 2015, 00:08:05
000800,21.7863, 28 Oct 2015, 00:08:34
000830,21.7937, 28 Oct 2015, 00:09:04
000900,21.7959, 28 Oct 2015, 00:09:35
000930,21.7934, 28 Oct 2015, 00:10:05
001000,21.7884, 28 Oct 2015, 00:10:35
001030,21.78, 28 Oct 2015, 00:11:04
001100,21.7722, 28 Oct 2015, 00:11:35
001130,21.7668, 28 Oct 2015, 00:12:05
001200,21.7626, 28 Oct 2015, 00:12:35
001230,21.7595, 28 Oct 2015, 00:13:04
001300,21.7561, 28 Oct 2015, 00:13:35
001330,21.7548, 28 Oct 2015, 00:14:05
001400,21.7539, 28 Oct 2015, 00:14:34
001430,21.7548, 28 Oct 2015, 00:15:04
001500,21.7578, 28 Oct 2015, 00:15:35
001530,21.7604, 28 Oct 2015, 00:16:05
001600,21.763, 28 Oct 2015, 00:16:34
001630,21.7657, 28 Oct 2015, 00:17:04
001700,21.7675, 28 Oct 2015, 00:17:35
001730,21.7696, 28 Oct 2015, 00:18:05
001800,21.7703, 28 Oct 2015, 00:18:34
001830,21.7722, 28 Oct 2015, 00:19:04
001900,21.7733, 28 Oct 2015, 00:19:35
001930,21.7737, 28 Oct 2015, 00:20:05
002030,21.7713, 28 Oct 2015, 00:21:04
002100,21.7696, 28 Oct 2015, 00:21:34
002130,21.7684, 28 Oct 2015, 00:22:05
002230,21.7623, 28 Oct 2015, 00:23:04
002300,21.7567, 28 Oct 2015, 00:23:34
002330,21.7529, 28 Oct 2015, 00:24:05
002400,21.7494, 28 Oct 2015, 00:24:34
002430,21.7487, 28 Oct 2015, 00:25:04
002500,21.7512, 28 Oct 2015, 00:25:34
002530,21.7546, 28 Oct 2015, 00:26:05
002600,21.7584, 28 Oct 2015, 00:26:34
002630,21.764, 28 Oct 2015, 00:27:04
002700,21.7688, 28 Oct 2015, 00:27:34
002730,21.776, 28 Oct 2015, 00:28:05
002800,21.783, 28 Oct 2015, 00:28:34
002830,21.7885, 28 Oct 2015, 00:29:04
002900,21.7929, 28 Oct 2015, 00:29:34
002930,21.7972, 28 Oct 2015, 00:30:05
003000,21.8017, 28 Oct 2015, 00:30:34
003030,21.8074, 28 Oct 2015, 00:31:04
003100,21.8105, 28 Oct 2015, 00:31:34
003130,21.8124, 28 Oct 2015, 00:32:05
003200,21.8145, 28 Oct 2015, 00:32:34
003230,21.8167, 28 Oct 2015, 00:33:04
003300,21.8219, 28 Oct 2015, 00:33:34
003330,21.8278, 28 Oct 2015, 00:34:04
003400,21.8331, 28 Oct 2015, 00:34:34
003430,21.838, 28 Oct 2015, 00:35:04
003500,21.8427, 28 Oct 2015, 00:35:34
003530,21.8452, 28 Oct 2015, 00:36:04
003600,21.8412, 28 Oct 2015, 00:36:34
003630,21.8327, 28 Oct 2015, 00:37:04
003700,21.8191, 28 Oct 2015, 00:37:34
003730,21.805, 28 Oct 2015, 00:38:04
003800,21.7919, 28 Oct 2015, 00:38:34
003830,21.7816, 28 Oct 2015, 00:39:04
003900,21.7722, 28 Oct 2015, 00:39:34
003930,21.768, 28 Oct 2015, 00:40:04
004000,21.7655, 28 Oct 2015, 00:40:34
004030,21.7696, 28 Oct 2015, 00:41:04
004100,21.7765, 28 Oct 2015, 00:41:34
004200,21.7914, 28 Oct 2015, 00:42:34
004230,21.7965, 28 Oct 2015, 00:43:04
004300,21.8003, 28 Oct 2015, 00:43:34
004330,21.8045, 28 Oct 2015, 00:44:05
004400,21.8077, 28 Oct 2015, 00:44:35
004430,21.8085, 28 Oct 2015, 00:45:05
004500,21.8105, 28 Oct 2015, 00:45:34
004530,21.8112, 28 Oct 2015, 00:46:05
004600,21.812, 28 Oct 2015, 00:46:35
004630,21.8134, 28 Oct 2015, 00:47:05
004700,21.8147, 28 Oct 2015, 00:47:34
004730,21.8149, 28 Oct 2015, 00:48:05
004800,21.8141, 28 Oct 2015, 00:48:35
004830,21.8151, 28 Oct 2015, 00:49:05
004900,21.8168, 28 Oct 2015, 00:49:34
004930,21.8213, 28 Oct 2015, 00:50:05
005000,21.826, 28 Oct 2015, 00:50:35
005030,21.8299, 28 Oct 2015, 00:51:05
005100,21.8333, 28 Oct 2015, 00:51:34
005130,21.8361, 28 Oct 2015, 00:52:05
005200,21.8384, 28 Oct 2015, 00:52:35
005230,21.8405, 28 Oct 2015, 00:53:05
005300,21.8416, 28 Oct 2015, 00:53:34
005330,21.8421, 28 Oct 2015, 00:54:05
005400,21.8423, 28 Oct 2015, 00:54:35
005430,21.8418, 28 Oct 2015, 00:55:04
005500,21.8413, 28 Oct 2015, 00:55:34
005530,21.8398, 28 Oct 2015, 00:56:05
005600,21.8383, 28 Oct 2015, 00:56:35
005630,21.8373, 28 Oct 2015, 00:57:04
005700,21.8352, 28 Oct 2015, 00:57:34
005730,21.8318, 28 Oct 2015, 00:58:05
005800,21.8289, 28 Oct 2015, 00:58:35
005830,21.8268, 28 Oct 2015, 00:59:04
005900,21.8258, 28 Oct 2015, 00:59:34
005930,21.8259, 28 Oct 2015, 01:00:05
010000,21.8254, 28 Oct 2015, 01:00:35
010100,21.8217, 28 Oct 2015, 01:01:34
010130,21.8206, 28 Oct 2015, 01:02:04
010200,21.8214, 28 Oct 2015, 01:02:35
010230,21.8227, 28 Oct 2015, 01:03:05
010300,21.8239, 28 Oct 2015, 01:03:34
010330,21.8256, 28 Oct 2015, 01:04:04
010400,21.8268, 28 Oct 2015, 01:04:35
010430,21.8281, 28 Oct 2015, 01:05:04
010500,21.828, 28 Oct 2015, 01:05:34
010530,21.8287, 28 Oct 2015, 01:06:04
010600,21.8306, 28 Oct 2015, 01:06:35
010630,21.8322, 28 Oct 2015, 01:07:04
010700,21.8336, 28 Oct 2015, 01:07:34
010730,21.8364, 28 Oct 2015, 01:08:04
010800,21.8401, 28 Oct 2015, 01:08:35
010830,21.8422, 28 Oct 2015, 01:09:05
010900,21.8442, 28 Oct 2015, 01:09:34
010930,21.8452, 28 Oct 2015, 01:10:04
011000,21.8461, 28 Oct 2015, 01:10:34
011030,21.8492, 28 Oct 2015, 01:11:05
011100,21.8528, 28 Oct 2015, 01:11:34
011130,21.8536, 28 Oct 2015, 01:12:04
011200,21.854, 28 Oct 2015, 01:12:34
011230,21.8556, 28 Oct 2015, 01:13:05
011300,21.8564, 28 Oct 2015, 01:13:34
011330,21.8539, 28 Oct 2015, 01:14:04
011400,21.8506, 28 Oct 2015, 01:14:34
011430,21.8492, 28 Oct 2015, 01:15:04
011500,21.8497, 28 Oct 2015, 01:15:34
011530,21.8524, 28 Oct 2015, 01:16:04
011600,21.8565, 28 Oct 2015, 01:16:34
011630,21.8606, 28 Oct 2015, 01:17:04
011700,21.8648, 28 Oct 2015, 01:17:34
011730,21.869, 28 Oct 2015, 01:18:04
011800,21.8706, 28 Oct 2015, 01:18:34
011830,21.868, 28 Oct 2015, 01:19:04
011900,21.8649, 28 Oct 2015, 01:19:34
011930,21.8622, 28 Oct 2015, 01:20:04
012000,21.8597, 28 Oct 2015, 01:20:34
012030,21.8598, 28 Oct 2015, 01:21:04
012100,21.8634, 28 Oct 2015, 01:21:34
012130,21.8649, 28 Oct 2015, 01:22:04
012200,21.8663, 28 Oct 2015, 01:22:34
012230,21.869, 28 Oct 2015, 01:23:04
012300,21.8705, 28 Oct 2015, 01:23:35
012330,21.8717, 28 Oct 2015, 01:24:05
012400,21.8714, 28 Oct 2015, 01:24:34
012430,21.867, 28 Oct 2015, 01:25:05
012500,21.8653, 28 Oct 2015, 01:25:35
012530,21.8643, 28 Oct 2015, 01:26:05
012630,21.8631, 28 Oct 2015, 01:27:05
012700,21.864, 28 Oct 2015, 01:27:35
012730,21.8677, 28 Oct 2015, 01:28:05
012830,21.8777, 28 Oct 2015, 01:29:05
012900,21.8804, 28 Oct 2015, 01:29:35
012930,21.8847, 28 Oct 2015, 01:30:05
013030,21.8936, 28 Oct 2015, 01:31:05
013100,21.8982, 28 Oct 2015, 01:31:35
013130,21.9027, 28 Oct 2015, 01:32:05
013230,21.9178, 28 Oct 2015, 01:33:05
013300,21.9312, 28 Oct 2015, 01:33:35
013330,21.948, 28 Oct 2015, 01:34:05
013400,21.9645, 28 Oct 2015, 01:34:34
013430,21.9815, 28 Oct 2015, 01:35:05
013500,21.9986, 28 Oct 2015, 01:35:35
013530,22.0159, 28 Oct 2015, 01:36:05
013600,22.0321, 28 Oct 2015, 01:36:34
013630,22.0475, 28 Oct 2015, 01:37:04
013700,22.0618, 28 Oct 2015, 01:37:35
013730,22.0732, 28 Oct 2015, 01:38:05
013830,22.0881, 28 Oct 2015, 01:39:04
013900,22.0927, 28 Oct 2015, 01:39:35
013930,22.0961, 28 Oct 2015, 01:40:05
014000,22.0997, 28 Oct 2015, 01:40:35
014030,22.1029, 28 Oct 2015, 01:41:04
014100,22.105, 28 Oct 2015, 01:41:34
014130,22.106, 28 Oct 2015, 01:42:05
014200,22.1076, 28 Oct 2015, 01:42:35
014300,22.1117, 28 Oct 2015, 01:43:34
014330,22.1124, 28 Oct 2015, 01:44:05
014400,22.1114, 28 Oct 2015, 01:44:35
014430,22.1112, 28 Oct 2015, 01:45:04
014500,22.1129, 28 Oct 2015, 01:45:34
014530,22.1158, 28 Oct 2015, 01:46:04
014600,22.1222, 28 Oct 2015, 01:46:35
014630,22.1278, 28 Oct 2015, 01:47:04
014700,22.1361, 28 Oct 2015, 01:47:34
014730,22.1431, 28 Oct 2015, 01:48:04
014800,22.1499, 28 Oct 2015, 01:48:35
014830,22.1567, 28 Oct 2015, 01:49:05
014900,22.1622, 28 Oct 2015, 01:49:34
014930,22.1653, 28 Oct 2015, 01:50:04
015000,22.1677, 28 Oct 2015, 01:50:35
015030,22.1687, 28 Oct 2015, 01:51:05
015100,22.1677, 28 Oct 2015, 01:51:34
015130,22.1661, 28 Oct 2015, 01:52:04
015200,22.1643, 28 Oct 2015, 01:52:34
015230,22.1609, 28 Oct 2015, 01:53:05
015300,22.1577, 28 Oct 2015, 01:53:34
015330,22.153, 28 Oct 2015, 01:54:04
015400,22.1497, 28 Oct 2015, 01:54:34
015500,22.1429, 28 Oct 2015, 01:55:34
015530,22.1379, 28 Oct 2015, 01:56:04
015600,22.1349, 28 Oct 2015, 01:56:34
015630,22.1333, 28 Oct 2015, 01:57:05
015700,22.1331, 28 Oct 2015, 01:57:34
015730,22.1336, 28 Oct 2015, 01:58:04
015800,22.1341, 28 Oct 2015, 01:58:34
015830,22.1338, 28 Oct 2015, 01:59:04
015900,22.1342, 28 Oct 2015, 01:59:34
015930,22.1342, 28 Oct 2015, 02:00:04
020000,22.1352, 28 Oct 2015, 02:00:34
020030,22.1355, 28 Oct 2015, 02:01:04
020100,22.1349, 28 Oct 2015, 02:01:35
020130,22.1348, 28 Oct 2015, 02:02:04
020200,22.1338, 28 Oct 2015, 02:02:34
020230,22.1331, 28 Oct 2015, 02:03:04
020330,22.1318, 28 Oct 2015, 02:04:05
020400,22.1312, 28 Oct 2015, 02:04:35
020430,22.1306, 28 Oct 2015, 02:05:05
020500,22.13, 28 Oct 2015, 02:05:35
020530,22.1281, 28 Oct 2015, 02:06:04
020600,22.1251, 28 Oct 2015, 02:06:35
020630,22.1219, 28 Oct 2015, 02:07:05
020700,22.1204, 28 Oct 2015, 02:07:35
020730,22.1192, 28 Oct 2015, 02:08:05
020800,22.1176, 28 Oct 2015, 02:08:34
020830,22.1139, 28 Oct 2015, 02:09:05
020900,22.1094, 28 Oct 2015, 02:09:35
020930,22.105, 28 Oct 2015, 02:10:05
021000,22.1003, 28 Oct 2015, 02:10:35
021030,22.097, 28 Oct 2015, 02:11:05
021100,22.093, 28 Oct 2015, 02:11:35
021130,22.089, 28 Oct 2015, 02:12:05
021200,22.0856, 28 Oct 2015, 02:12:35
021230,22.0817, 28 Oct 2015, 02:13:04
021300,22.0789, 28 Oct 2015, 02:13:35
021330,22.0765, 28 Oct 2015, 02:14:05
021400,22.0743, 28 Oct 2015, 02:14:35
021430,22.0725, 28 Oct 2015, 02:15:04
021500,22.0698, 28 Oct 2015, 02:15:34
021530,22.0685, 28 Oct 2015, 02:16:05
021600,22.0669, 28 Oct 2015, 02:16:35
021700,22.0633, 28 Oct 2015, 02:17:34
021730,22.0622, 28 Oct 2015, 02:18:05
021800,22.062, 28 Oct 2015, 02:18:35
021830,22.0611, 28 Oct 2015, 02:19:05
021900,22.0597, 28 Oct 2015, 02:19:34
021930,22.0578, 28 Oct 2015, 02:20:04
022000,22.0562, 28 Oct 2015, 02:20:35
022030,22.0526, 28 Oct 2015, 02:21:05
022100,22.0499, 28 Oct 2015, 02:21:35
022130,22.0468, 28 Oct 2015, 02:22:04
022200,22.0431, 28 Oct 2015, 02:22:34
022230,22.0395, 28 Oct 2015, 02:23:05
022330,22.0317, 28 Oct 2015, 02:24:04
022400,22.0264, 28 Oct 2015, 02:24:34
022430,22.019, 28 Oct 2015, 02:25:05
022500,22.0095, 28 Oct 2015, 02:25:35
022530,21.9988, 28 Oct 2015, 02:26:04
022600,21.9864, 28 Oct 2015, 02:26:34
022630,21.9746, 28 Oct 2015, 02:27:04
022700,21.9611, 28 Oct 2015, 02:27:35
022730,21.9496, 28 Oct 2015, 02:28:04
022800,21.9416, 28 Oct 2015, 02:28:34
022830,21.9323, 28 Oct 2015, 02:29:04
022900,21.9203, 28 Oct 2015, 02:29:35
022930,21.909, 28 Oct 2015, 02:30:04
023000,21.8959, 28 Oct 2015, 02:30:34
023030,21.8858, 28 Oct 2015, 02:31:04
023100,21.8797, 28 Oct 2015, 02:31:35
023130,21.8751, 28 Oct 2015, 02:32:04
023200,21.8704, 28 Oct 2015, 02:32:34
023230,21.8672, 28 Oct 2015, 02:33:04
023330,21.8715, 28 Oct 2015, 02:34:04
023400,21.8804, 28 Oct 2015, 02:34:34
023430,21.8952, 28 Oct 2015, 02:35:04
023530,21.9323, 28 Oct 2015, 02:36:04
023600,21.9565, 28 Oct 2015, 02:36:34
023630,21.9835, 28 Oct 2015, 02:37:04
023730,22.0302, 28 Oct 2015, 02:38:04
023800,22.0547, 28 Oct 2015, 02:38:34
023830,22.0804, 28 Oct 2015, 02:39:04
023900,22.1074, 28 Oct 2015, 02:39:35
023930,22.1347, 28 Oct 2015, 02:40:04
024000,22.1638, 28 Oct 2015, 02:40:34
024030,22.192, 28 Oct 2015, 02:41:04
024100,22.2284, 28 Oct 2015, 02:41:34
024130,22.261, 28 Oct 2015, 02:42:04
024200,22.2902, 28 Oct 2015, 02:42:34
024230,22.3157, 28 Oct 2015, 02:43:04
024300,22.3388, 28 Oct 2015, 02:43:34
024330,22.3594, 28 Oct 2015, 02:44:05
024400,22.3717, 28 Oct 2015, 02:44:35
024430,22.3805, 28 Oct 2015, 02:45:05
024530,22.3932, 28 Oct 2015, 02:46:05
024600,22.3919, 28 Oct 2015, 02:46:35
024630,22.3876, 28 Oct 2015, 02:47:05
024700,22.3823, 28 Oct 2015, 02:47:35
024730,22.3757, 28 Oct 2015, 02:48:05
024800,22.3687, 28 Oct 2015, 02:48:35
024830,22.3594, 28 Oct 2015, 02:49:05
024900,22.346, 28 Oct 2015, 02:49:35
024930,22.3214, 28 Oct 2015, 02:50:05
025000,22.2899, 28 Oct 2015, 02:50:35
025030,22.2505, 28 Oct 2015, 02:51:05
025100,22.2058, 28 Oct 2015, 02:51:35
025130,22.1411, 28 Oct 2015, 02:52:04
025200,22.0644, 28 Oct 2015, 02:52:35
025230,21.9933, 28 Oct 2015, 02:53:05
025300,21.9356, 28 Oct 2015, 02:53:34
025330,21.89, 28 Oct 2015, 02:54:04
025400,21.8584, 28 Oct 2015, 02:54:35
025430,21.8374, 28 Oct 2015, 02:55:05
025500,21.8249, 28 Oct 2015, 02:55:34
025530,21.8158, 28 Oct 2015, 02:56:04
025600,21.8068, 28 Oct 2015, 02:56:35
025630,21.7951, 28 Oct 2015, 02:57:05
025700,21.7831, 28 Oct 2015, 02:57:34
025730,21.7749, 28 Oct 2015, 02:58:04
025800,21.7686, 28 Oct 2015, 02:58:35
025830,21.7665, 28 Oct 2015, 02:59:05
025900,21.7697, 28 Oct 2015, 02:59:34
025930,21.7754, 28 Oct 2015, 03:00:04
030000,21.7813, 28 Oct 2015, 03:00:35
030030,21.7881, 28 Oct 2015, 03:01:05
030130,21.8108, 28 Oct 2015, 03:02:04
030200,21.8228, 28 Oct 2015, 03:02:35
030230,21.8366, 28 Oct 2015, 03:03:05
030300,21.8496, 28 Oct 2015, 03:03:34
030330,21.8625, 28 Oct 2015, 03:04:04
030400,21.8753, 28 Oct 2015, 03:04:35
030430,21.8872, 28 Oct 2015, 03:05:05
030500,21.8941, 28 Oct 2015, 03:05:34
030530,21.898, 28 Oct 2015, 03:06:04
030600,21.902, 28 Oct 2015, 03:06:34
030630,21.9059, 28 Oct 2015, 03:07:05
030700,21.9086, 28 Oct 2015, 03:07:34
030730,21.91, 28 Oct 2015, 03:08:04
030800,21.9116, 28 Oct 2015, 03:08:34
030830,21.9138, 28 Oct 2015, 03:09:05
030930,21.915, 28 Oct 2015, 03:10:04
031000,21.9127, 28 Oct 2015, 03:10:34
031030,21.9086, 28 Oct 2015, 03:11:05
031130,21.8886, 28 Oct 2015, 03:12:04
031200,21.8746, 28 Oct 2015, 03:12:34
031230,21.8593, 28 Oct 2015, 03:13:05
031300,21.8471, 28 Oct 2015, 03:13:34
031330,21.8401, 28 Oct 2015, 03:14:04
031400,21.8359, 28 Oct 2015, 03:14:34
031430,21.8361, 28 Oct 2015, 03:15:05
031500,21.8371, 28 Oct 2015, 03:15:34
031530,21.8353, 28 Oct 2015, 03:16:04
031600,21.8361, 28 Oct 2015, 03:16:34
031630,21.8387, 28 Oct 2015, 03:17:05
031700,21.8412, 28 Oct 2015, 03:17:34
031730,21.8441, 28 Oct 2015, 03:18:04
031800,21.8453, 28 Oct 2015, 03:18:34
031830,21.8476, 28 Oct 2015, 03:19:05
031900,21.8523, 28 Oct 2015, 03:19:34
031930,21.8563, 28 Oct 2015, 03:20:04
032000,21.861, 28 Oct 2015, 03:20:34
032030,21.8644, 28 Oct 2015, 03:21:05
032100,21.8686, 28 Oct 2015, 03:21:34
032130,21.8721, 28 Oct 2015, 03:22:04
032200,21.8749, 28 Oct 2015, 03:22:34
032230,21.8767, 28 Oct 2015, 03:23:05
032300,21.8751, 28 Oct 2015, 03:23:35
032330,21.8706, 28 Oct 2015, 03:24:05
032400,21.8657, 28 Oct 2015, 03:24:35
032430,21.8561, 28 Oct 2015, 03:25:05
032500,21.8445, 28 Oct 2015, 03:25:35
032530,21.8423, 28 Oct 2015, 03:26:05
032600,21.8518, 28 Oct 2015, 03:26:35
032630,21.8623, 28 Oct 2015, 03:27:05
032700,21.8715, 28 Oct 2015, 03:27:35
032730,21.88, 28 Oct 2015, 03:28:05
032800,21.8814, 28 Oct 2015, 03:28:35
032830,21.8768, 28 Oct 2015, 03:29:05
032900,21.8687, 28 Oct 2015, 03:29:35
032930,21.8602, 28 Oct 2015, 03:30:05
033000,21.8622, 28 Oct 2015, 03:30:35
033030,21.8677, 28 Oct 2015, 03:31:05
033100,21.8724, 28 Oct 2015, 03:31:35
033130,21.8773, 28 Oct 2015, 03:32:05
033200,21.8812, 28 Oct 2015, 03:32:35
033230,21.8834, 28 Oct 2015, 03:33:05
033300,21.8859, 28 Oct 2015, 03:33:35
033330,21.887, 28 Oct 2015, 03:34:05
033400,21.8882, 28 Oct 2015, 03:34:34
033430,21.8893, 28 Oct 2015, 03:35:05
033500,21.8881, 28 Oct 2015, 03:35:35
033530,21.8882, 28 Oct 2015, 03:36:05
033600,21.8885, 28 Oct 2015, 03:36:34
033630,21.8878, 28 Oct 2015, 03:37:05
033700,21.8843, 28 Oct 2015, 03:37:35
033730,21.8797, 28 Oct 2015, 03:38:05
033800,21.873, 28 Oct 2015, 03:38:34
033830,21.8677, 28 Oct 2015, 03:39:05
033900,21.8622, 28 Oct 2015, 03:39:35
033930,21.8578, 28 Oct 2015, 03:40:05
034000,21.853, 28 Oct 2015, 03:40:34
034030,21.8484, 28 Oct 2015, 03:41:05
034100,21.8433, 28 Oct 2015, 03:41:35
034130,21.8375, 28 Oct 2015, 03:42:05
034200,21.8304, 28 Oct 2015, 03:42:34
034230,21.8223, 28 Oct 2015, 03:43:05
034300,21.8116, 28 Oct 2015, 03:43:35
034330,21.7966, 28 Oct 2015, 03:44:04
034400,21.7774, 28 Oct 2015, 03:44:34
034430,21.7623, 28 Oct 2015, 03:45:05
034500,21.7518, 28 Oct 2015, 03:45:35
034530,21.7401, 28 Oct 2015, 03:46:04
034600,21.7424, 28 Oct 2015, 03:46:34
034630,21.7607, 28 Oct 2015, 03:47:05
034700,21.7862, 28 Oct 2015, 03:47:35
034730,21.8129, 28 Oct 2015, 03:48:04
034800,21.8403, 28 Oct 2015, 03:48:34
034830,21.8647, 28 Oct 2015, 03:49:05
034900,21.8832, 28 Oct 2015, 03:49:35
034930,21.8979, 28 Oct 2015, 03:50:04
035000,21.9112, 28 Oct 2015, 03:50:34
035030,21.9214, 28 Oct 2015, 03:51:05
035100,21.9279, 28 Oct 2015, 03:51:35
035130,21.931, 28 Oct 2015, 03:52:04
035200,21.9344, 28 Oct 2015, 03:52:34
035230,21.9372, 28 Oct 2015, 03:53:05
035300,21.9386, 28 Oct 2015, 03:53:34
035330,21.9406, 28 Oct 2015, 03:54:04
035400,21.944, 28 Oct 2015, 03:54:34
035430,21.9456, 28 Oct 2015, 03:55:05
035500,21.9456, 28 Oct 2015, 03:55:34
035530,21.9338, 28 Oct 2015, 03:56:04
035600,21.9135, 28 Oct 2015, 03:56:34
035630,21.893, 28 Oct 2015, 03:57:05
035700,21.8749, 28 Oct 2015, 03:57:34
035730,21.8665, 28 Oct 2015, 03:58:04
035800,21.8669, 28 Oct 2015, 03:58:34
035830,21.8654, 28 Oct 2015, 03:59:05
035900,21.8652, 28 Oct 2015, 03:59:34
035930,21.8663, 28 Oct 2015, 04:00:04
040000,21.8722, 28 Oct 2015, 04:00:34
040030,21.8813, 28 Oct 2015, 04:01:05
040100,21.8917, 28 Oct 2015, 04:01:34
040130,21.9013, 28 Oct 2015, 04:02:04
040200,21.9091, 28 Oct 2015, 04:02:34
040230,21.9168, 28 Oct 2015, 04:03:05
040300,21.9241, 28 Oct 2015, 04:03:34
040330,21.9302, 28 Oct 2015, 04:04:04
040400,21.9348, 28 Oct 2015, 04:04:34
040500,21.9421, 28 Oct 2015, 04:05:34
040530,21.9436, 28 Oct 2015, 04:06:04
040600,21.9395, 28 Oct 2015, 04:06:34
040630,21.9285, 28 Oct 2015, 04:07:04
040700,21.9146, 28 Oct 2015, 04:07:34
040730,21.9035, 28 Oct 2015, 04:08:04
040800,21.8933, 28 Oct 2015, 04:08:34
040830,21.8829, 28 Oct 2015, 04:09:04
040900,21.8765, 28 Oct 2015, 04:09:34
040930,21.8715, 28 Oct 2015, 04:10:04
041000,21.8704, 28 Oct 2015, 04:10:34
041030,21.8698, 28 Oct 2015, 04:11:04
041100,21.8692, 28 Oct 2015, 04:11:34
041130,21.8683, 28 Oct 2015, 04:12:04
041200,21.8681, 28 Oct 2015, 04:12:34
041230,21.866, 28 Oct 2015, 04:13:04
041300,21.8636, 28 Oct 2015, 04:13:35
041330,21.8603, 28 Oct 2015, 04:14:05
041400,21.857, 28 Oct 2015, 04:14:35
041430,21.8518, 28 Oct 2015, 04:15:04
041500,21.8492, 28 Oct 2015, 04:15:35
041530,21.8506, 28 Oct 2015, 04:16:05
041600,21.8532, 28 Oct 2015, 04:16:35
041630,21.8541, 28 Oct 2015, 04:17:04
041700,21.8576, 28 Oct 2015, 04:17:35
041730,21.8622, 28 Oct 2015, 04:18:05
041800,21.8674, 28 Oct 2015, 04:18:35
041830,21.8719, 28 Oct 2015, 04:19:04
041900,21.8771, 28 Oct 2015, 04:19:35
041930,21.8803, 28 Oct 2015, 04:20:05
042000,21.8834, 28 Oct 2015, 04:20:35
042030,21.8833, 28 Oct 2015, 04:21:04
042100,21.8824, 28 Oct 2015, 04:21:35
042130,21.8804, 28 Oct 2015, 04:22:05
042200,21.879, 28 Oct 2015, 04:22:35
042230,21.8798, 28 Oct 2015, 04:23:04
042300,21.8814, 28 Oct 2015, 04:23:35
042330,21.8798, 28 Oct 2015, 04:24:05
042400,21.8754, 28 Oct 2015, 04:24:34
042430,21.8694, 28 Oct 2015, 04:25:04
042500,21.8541, 28 Oct 2015, 04:25:35
042530,21.8354, 28 Oct 2015, 04:26:05
042600,21.8181, 28 Oct 2015, 04:26:34
042630,21.8124, 28 Oct 2015, 04:27:04
042700,21.8169, 28 Oct 2015, 04:27:35
042730,21.8272, 28 Oct 2015, 04:28:05
042800,21.8404, 28 Oct 2015, 04:28:34
042830,21.8495, 28 Oct 2015, 04:29:04
042900,21.845, 28 Oct 2015, 04:29:35
042930,21.8341, 28 Oct 2015, 04:30:05
043000,21.8188, 28 Oct 2015, 04:30:34
043030,21.8049, 28 Oct 2015, 04:31:04
043100,21.7926, 28 Oct 2015, 04:31:35
043130,21.7834, 28 Oct 2015, 04:32:05
043200,21.7816, 28 Oct 2015, 04:32:34
043230,21.787, 28 Oct 2015, 04:33:04
043300,21.8033, 28 Oct 2015, 04:33:35
043330,21.8228, 28 Oct 2015, 04:34:04
043400,21.8418, 28 Oct 2015, 04:34:34
043430,21.8578, 28 Oct 2015, 04:35:04
043500,21.8727, 28 Oct 2015, 04:35:35
043530,21.8833, 28 Oct 2015, 04:36:04
043600,21.8937, 28 Oct 2015, 04:36:34
043630,21.902, 28 Oct 2015, 04:37:04
043700,21.9096, 28 Oct 2015, 04:37:35
043730,21.9127, 28 Oct 2015, 04:38:04
043800,21.9128, 28 Oct 2015, 04:38:34
043830,21.9158, 28 Oct 2015, 04:39:04
043900,21.9174, 28 Oct 2015, 04:39:35
043930,21.9181, 28 Oct 2015, 04:40:04
044000,21.918, 28 Oct 2015, 04:40:34
044030,21.9166, 28 Oct 2015, 04:41:04
044100,21.914, 28 Oct 2015, 04:41:35
044130,21.912, 28 Oct 2015, 04:42:04
044200,21.9106, 28 Oct 2015, 04:42:34
044230,21.9126, 28 Oct 2015, 04:43:04
044300,21.9161, 28 Oct 2015, 04:43:34
044330,21.9219, 28 Oct 2015, 04:44:04
044400,21.9273, 28 Oct 2015, 04:44:34
044430,21.933, 28 Oct 2015, 04:45:04
044500,21.938, 28 Oct 2015, 04:45:34
044530,21.9417, 28 Oct 2015, 04:46:04
044600,21.9461, 28 Oct 2015, 04:46:34
044630,21.9502, 28 Oct 2015, 04:47:04
044700,21.9537, 28 Oct 2015, 04:47:34
044730,21.956, 28 Oct 2015, 04:48:04
044800,21.9583, 28 Oct 2015, 04:48:34
044830,21.9584, 28 Oct 2015, 04:49:04
044900,21.9603, 28 Oct 2015, 04:49:34
044930,21.9621, 28 Oct 2015, 04:50:04
045000,21.9642, 28 Oct 2015, 04:50:34
045030,21.9673, 28 Oct 2015, 04:51:04
045100,21.9714, 28 Oct 2015, 04:51:34
045130,21.9775, 28 Oct 2015, 04:52:04
045200,21.9837, 28 Oct 2015, 04:52:34
045230,21.9919, 28 Oct 2015, 04:53:04
045300,22.0013, 28 Oct 2015, 04:53:34
045330,22.0139, 28 Oct 2015, 04:54:05
045400,22.0263, 28 Oct 2015, 04:54:35
045430,22.0385, 28 Oct 2015, 04:55:04
045500,22.049, 28 Oct 2015, 04:55:35
045530,22.0589, 28 Oct 2015, 04:56:05
045600,22.0675, 28 Oct 2015, 04:56:35
045630,22.0747, 28 Oct 2015, 04:57:05
045700,22.0802, 28 Oct 2015, 04:57:34
045730,22.0869, 28 Oct 2015, 04:58:05
045800,22.0939, 28 Oct 2015, 04:58:35
045830,22.1019, 28 Oct 2015, 04:59:05
045900,22.1093, 28 Oct 2015, 04:59:34
045930,22.1167, 28 Oct 2015, 05:00:05
050000,22.1231, 28 Oct 2015, 05:00:35
050030,22.1293, 28 Oct 2015, 05:01:05
050100,22.1355, 28 Oct 2015, 05:01:35
050130,22.1405, 28 Oct 2015, 05:02:04
050200,22.1453, 28 Oct 2015, 05:02:35
050230,22.1499, 28 Oct 2015, 05:03:05
050330,22.1586, 28 Oct 2015, 05:04:04
050400,22.164, 28 Oct 2015, 05:04:34
050430,22.1712, 28 Oct 2015, 05:05:05
050500,22.1783, 28 Oct 2015, 05:05:35
050530,22.1844, 28 Oct 2015, 05:06:04
050600,22.191, 28 Oct 2015, 05:06:34
050630,22.1971, 28 Oct 2015, 05:07:05
050700,22.202, 28 Oct 2015, 05:07:35
050730,22.2061, 28 Oct 2015, 05:08:05
050800,22.2097, 28 Oct 2015, 05:08:34
050830,22.2145, 28 Oct 2015, 05:09:04
050900,22.2203, 28 Oct 2015, 05:09:35
050930,22.2266, 28 Oct 2015, 05:10:05
051000,22.2329, 28 Oct 2015, 05:10:34
051030,22.2369, 28 Oct 2015, 05:11:04
051100,22.2403, 28 Oct 2015, 05:11:35
051130,22.2433, 28 Oct 2015, 05:12:05
051230,22.248, 28 Oct 2015, 05:13:04
051300,22.2517, 28 Oct 2015, 05:13:34
051330,22.2534, 28 Oct 2015, 05:14:05
051400,22.2556, 28 Oct 2015, 05:14:34
051430,22.2582, 28 Oct 2015, 05:15:04
051500,22.261, 28 Oct 2015, 05:15:34
051530,22.2634, 28 Oct 2015, 05:16:05
051600,22.2647, 28 Oct 2015, 05:16:34
051630,22.2659, 28 Oct 2015, 05:17:04
051700,22.2657, 28 Oct 2015, 05:17:34
051730,22.2656, 28 Oct 2015, 05:18:05
051800,22.2657, 28 Oct 2015, 05:18:34
051830,22.268, 28 Oct 2015, 05:19:04
051900,22.2708, 28 Oct 2015, 05:19:34
051930,22.2738, 28 Oct 2015, 05:20:05
052030,22.2778, 28 Oct 2015, 05:21:04
052100,22.278, 28 Oct 2015, 05:21:34